Location: Bailleul
(50.3375°N, 2.8513°E)
Time: 05:43:28
(UTC+00:00)

Cosmos 2315 Rocket - Pass Details

Date: 19 April 2021
Orbit: 967 x 1001 km, 82.9° (Epoch: 09 May)

Event Time Altitude Azimuth Distance (km) Brightness Sun altitude
Exits shadow 23:38:08 64° 238° (WSW) 1,092 4.0 -28.1°
Maximum altitude 23:38:52 71° 282° (WNW) 1,051 4.1 -28.1°
Drops below altitude 10° 23:45:15 10° 6° (N) 2,778 7.3 -28.1°
Sets 23:47:49 0° 9° (N) 3,735 8.3 -28.1°
